Location: Ferques
(50.8300°N, 1.7599°E)
Time: 19:39:30
(UTC+00:00)

NOSS 3-1 (A) - Pass Details

Date: 19 May 2025
Orbit: 639 x 1568 km, 63.4° (Epoch: 20 June)

Event Time Altitude Azimuth Distance (km) Brightness Sun altitude
Exits shadow 22:37:39 - 224° (SW) 2,352 5.3 -17.4°
Reaches altitude 10° 22:38:07 10° 225° (SW) 2,171 5.1 -17.5°
Maximum altitude 22:43:01 86° 314° (NW) 803 3.1 -17.7°
Drops below altitude 10° 22:49:04 10° 44° (NE) 2,659 6.2 -17.9°
Sets 22:51:56 0° 45° (NE) 3,758 7.0 -18.1°
